User: anonymous   Login
Location: Unspecified
(0.0000°N, 0.0000°E)
Time: 23:48:09
(UTC+00:00)
Language:

USA 186 - Orbit

View from above orbital plane
View from above orbital plane
View from above satellite
View from above satellite

Ground track
Ground track

The orbit data is extracted from the following two-line orbital elements,

1 28888U 05042A   16171.10468735  .00035000  00000-0  19806-3 0    03
2 28888  96.8849 209.2429 0115754  47.1931 312.8067 15.69867241    02
Epoch (UTC): 19 June 2016 02:30:44
Eccentricity: 0.0115754
inclination: 96.8849°
perigee height: 281 km
apogee height: 437 km
right ascension of ascending node: 209.2429°
argument of perigee: 47.1931°
revolutions per day: 15.69867241
mean anomaly at epoch: 312.8067°
orbit number at epoch: 0

The dashed part of the orbit path shows where the satellite is in the earth's shadow,  

DLR